ACA814 CYUL-LFMN

Flight info

Callsign ACA814
Flight time N/A
Altitude 37000
Route SUXET DCT NOVUN DCT ESRAM DCT RABIK Q951 ANTOV DCT HULTN N439B ELSIR/M082F380 NATV GISTI/M081F390 DCT ARKIL/N0465F390 DCT DOLUR DCT TERKU DCT KORER DCT LEMKA DCT BEBIX DCT LERGA DCT LIQID DCT LATAM DCT TUNUR DCT NISAR
Aircraft A333/H-SDE3GHIJ2J3J5M1RVWXY/LB2D1

Departure

Time N/A
Airport Montreal / Pierre Elliott Trudeau International Airport (CYUL)

Arrival

Time 2026-05-06 17:19
Airport Nice-Côte d'Azur Airport (LFMN)
Time Latitude Longitude Altitude Speed Heading
2026-05-06 16:23 46.33288 0.48045 36912 ft 471 kts 121°
2026-05-06 16:23 46.29952 0.56155 36914 ft 471 kts 121°
2026-05-06 16:24 46.26613 0.64253 36902 ft 471 kts 121°
2026-05-06 16:24 46.23250 0.72382 36899 ft 471 kts 121°
2026-05-06 16:25 46.19910 0.80435 36894 ft 472 kts 121°
2026-05-06 16:25 46.16535 0.88549 36898 ft 471 kts 121°
2026-05-06 16:26 46.13175 0.96600 36902 ft 471 kts 121°
2026-05-06 16:26 46.09809 1.04647 36899 ft 471 kts 122°
2026-05-06 16:27 46.06424 1.12711 36899 ft 472 kts 122°
2026-05-06 16:27 46.03028 1.20781 36898 ft 471 kts 122°
2026-05-06 16:28 45.99638 1.28811 36899 ft 472 kts 122°
2026-05-06 16:28 45.96244 1.36830 36902 ft 472 kts 122°
2026-05-06 16:29 45.93391 1.45252 36911 ft 473 kts 111°
2026-05-06 16:29 45.90963 1.53995 36893 ft 473 kts 112°
2026-05-06 16:30 45.88902 1.61296 36892 ft 473 kts 112°
2026-05-06 16:30 45.86028 1.71433 36880 ft 472 kts 113°
2026-05-06 16:31 45.83552 1.80129 36886 ft 474 kts 113°
2026-05-06 16:31 45.81063 1.88840 36878 ft 474 kts 113°
2026-05-06 16:32 45.78568 1.97541 36879 ft 474 kts 113°
2026-05-06 16:32 45.76059 2.06258 36875 ft 474 kts 113°
2026-05-06 16:33 45.73550 2.14942 36883 ft 474 kts 113°
2026-05-06 16:34 45.69780 2.27943 36877 ft 474 kts 113°
2026-05-06 16:34 45.67257 2.36602 36885 ft 475 kts 114°
2026-05-06 16:35 45.64707 2.45325 36887 ft 475 kts 114°
2026-05-06 16:35 45.62180 2.53938 36887 ft 474 kts 114°
2026-05-06 16:36 45.59621 2.62629 36884 ft 475 kts 114°
2026-05-06 16:36 45.57067 2.71274 36878 ft 476 kts 115°
2026-05-06 16:37 45.54484 2.79988 36877 ft 476 kts 115°
2026-05-06 16:37 45.51912 2.88632 36878 ft 475 kts 115°
2026-05-06 16:38 45.49342 2.97242 36891 ft 475 kts 115°
2026-05-06 16:38 45.46762 3.05853 36894 ft 475 kts 115°
2026-05-06 16:39 45.44176 3.14459 36904 ft 476 kts 115°
2026-05-06 16:39 45.41568 3.23106 36906 ft 477 kts 115°
2026-05-06 16:40 45.38948 3.31765 36901 ft 477 kts 115°
2026-05-06 16:40 45.36340 3.40351 36902 ft 477 kts 115°
2026-05-06 16:41 45.33714 3.48973 36905 ft 477 kts 115°
2026-05-06 16:41 45.31083 3.57577 36910 ft 476 kts 115°
2026-05-06 16:42 45.28451 3.66153 36903 ft 476 kts 116°
2026-05-06 16:42 45.25744 3.74733 36891 ft 474 kts 121°
2026-05-06 16:43 45.22275 3.82607 36900 ft 474 kts 126°
2026-05-06 16:43 45.18720 3.90429 36905 ft 473 kts 126°
2026-05-06 16:44 45.15170 3.98209 36900 ft 474 kts 126°
2026-05-06 16:44 45.11585 4.06052 36906 ft 474 kts 126°
2026-05-06 16:45 45.08012 4.13842 36906 ft 475 kts 126°
2026-05-06 16:45 45.04429 4.21633 36917 ft 473 kts 126°
2026-05-06 16:46 45.00271 4.28716 36917 ft 468 kts 136°
2026-05-06 16:46 44.95871 4.35475 36896 ft 468 kts 136°
2026-05-06 16:47 44.91475 4.42224 36905 ft 468 kts 136°
2026-05-06 16:47 44.87073 4.48963 36914 ft 468 kts 136°
2026-05-06 16:48 44.82672 4.55687 36907 ft 469 kts 136°
2026-05-06 16:48 44.78278 4.62384 36897 ft 468 kts 136°
2026-05-06 16:49 44.73844 4.69125 36910 ft 468 kts 137°
2026-05-06 16:49 44.69449 4.75789 36829 ft 468 kts 137°
2026-05-06 16:49 44.67236 4.79138 36377 ft 473 kts 137°
2026-05-06 16:50 44.65006 4.82512 35980 ft 468 kts 137°
2026-05-06 16:50 44.62845 4.85863 35615 ft 465 kts 136°
2026-05-06 16:50 44.60722 4.89280 35243 ft 464 kts 136°
2026-05-06 16:50 44.58608 4.92658 34859 ft 466 kts 136°
2026-05-06 16:51 44.56470 4.96073 34492 ft 468 kts 136°
2026-05-06 16:51 44.54326 4.99494 34115 ft 468 kts 137°
2026-05-06 16:51 44.52189 5.02895 33753 ft 469 kts 137°
2026-05-06 16:51 44.50029 5.06330 33427 ft 470 kts 137°
2026-05-06 16:52 44.47918 5.09880 33085 ft 471 kts 137°
2026-05-06 16:52 44.45843 5.13361 32733 ft 474 kts 134°
2026-05-06 16:52 44.43785 5.16980 32326 ft 474 kts 134°
2026-05-06 16:52 44.41752 5.20587 31937 ft 475 kts 134°
2026-05-06 16:53 44.39623 5.24051 31550 ft 472 kts 139°
2026-05-06 16:53 44.37407 5.27431 31162 ft 472 kts 139°
2026-05-06 16:53 44.35180 5.30831 30717 ft 474 kts 139°
2026-05-06 16:53 44.32982 5.34203 30277 ft 474 kts 139°
2026-05-06 16:54 44.30770 5.37605 29817 ft 475 kts 139°
2026-05-06 16:54 44.28559 5.40997 29367 ft 476 kts 139°
2026-05-06 16:54 44.26297 5.44417 28904 ft 477 kts 139°
2026-05-06 16:54 44.24081 5.47790 28441 ft 476 kts 139°
2026-05-06 16:55 44.21854 5.51176 27979 ft 472 kts 139°
2026-05-06 16:55 44.19642 5.54504 27523 ft 470 kts 138°
2026-05-06 16:55 44.17414 5.57835 27047 ft 466 kts 138°
2026-05-06 16:55 44.15227 5.61101 26567 ft 463 kts 138°
2026-05-06 16:56 44.13045 5.64353 26101 ft 461 kts 138°
2026-05-06 16:56 44.10851 5.67607 25613 ft 456 kts 139°
2026-05-06 16:56 44.08704 5.70791 25113 ft 455 kts 139°
2026-05-06 16:56 44.06534 5.73989 24620 ft 452 kts 139°
2026-05-06 16:57 44.04393 5.77139 24091 ft 449 kts 139°
2026-05-06 16:57 44.02280 5.80275 23587 ft 445 kts 139°
2026-05-06 16:57 44.00179 5.83363 23062 ft 441 kts 139°
2026-05-06 16:57 43.98071 5.86439 22522 ft 439 kts 139°
2026-05-06 16:58 43.96001 5.89449 22010 ft 434 kts 139°
2026-05-06 16:58 43.93900 5.92485 21498 ft 432 kts 139°
2026-05-06 16:58 43.91814 5.95477 20991 ft 429 kts 139°
2026-05-06 16:58 43.89751 5.98386 20495 ft 426 kts 139°
2026-05-06 16:59 43.87664 6.01301 19995 ft 423 kts 139°
2026-05-06 16:59 43.85596 6.04161 19497 ft 420 kts 139°
2026-05-06 16:59 43.83537 6.06978 19005 ft 417 kts 139°
2026-05-06 16:59 43.81473 6.09767 18519 ft 415 kts 139°
2026-05-06 17:00 43.79421 6.12533 18033 ft 412 kts 139°
2026-05-06 17:00 43.77400 6.15259 17543 ft 409 kts 139°
2026-05-06 17:00 43.75368 6.17982 17051 ft 406 kts 139°
2026-05-06 17:00 43.73329 6.20704 16602 ft 403 kts 139°
2026-05-06 17:01 43.71328 6.23366 16197 ft 401 kts 139°
2026-05-06 17:01 43.69341 6.26008 15796 ft 399 kts 139°
2026-05-06 17:01 43.67344 6.28649 15391 ft 396 kts 139°
2026-05-06 17:01 43.65356 6.31272 14990 ft 393 kts 139°
2026-05-06 17:02 43.63403 6.33838 14590 ft 391 kts 139°
2026-05-06 17:02 43.61432 6.36421 14171 ft 388 kts 139°
2026-05-06 17:02 43.59484 6.38970 13779 ft 387 kts 139°
2026-05-06 17:02 43.57555 6.41476 13358 ft 384 kts 139°
2026-05-06 17:03 43.55606 6.43996 12948 ft 382 kts 139°
2026-05-06 17:03 43.53665 6.46491 12543 ft 380 kts 139°
2026-05-06 17:03 43.51744 6.48956 12138 ft 378 kts 139°
2026-05-06 17:03 43.49844 6.51387 11715 ft 376 kts 139°
2026-05-06 17:04 43.47914 6.53850 11319 ft 374 kts 139°
2026-05-06 17:04 43.46013 6.56275 10930 ft 372 kts 139°
2026-05-06 17:04 43.44123 6.58677 10545 ft 371 kts 139°
2026-05-06 17:04 43.42323 6.61156 10161 ft 371 kts 129°
2026-05-06 17:05 43.41129 6.64255 9697 ft 365 kts 108°
2026-05-06 17:05 43.40491 6.67515 9211 ft 341 kts 105°
2026-05-06 17:05 43.39927 6.70580 8764 ft 319 kts 105°
2026-05-06 17:05 43.39394 6.73459 8484 ft 311 kts 105°
2026-05-06 17:06 43.38864 6.76313 8124 ft 310 kts 104°
2026-05-06 17:06 43.38322 6.79205 7750 ft 309 kts 105°
2026-05-06 17:06 43.37793 6.82045 7381 ft 308 kts 105°
2026-05-06 17:06 43.37270 6.84868 6995 ft 306 kts 104°
2026-05-06 17:07 43.36745 6.87695 6618 ft 305 kts 104°
2026-05-06 17:07 43.36268 6.90515 6252 ft 304 kts 97°
2026-05-06 17:07 43.36407 6.93363 5882 ft 302 kts 78°
2026-05-06 17:07 43.36824 6.96197 5565 ft 299 kts 78°
2026-05-06 17:08 43.37238 6.98965 5239 ft 297 kts 78°
2026-05-06 17:08 43.37656 7.01753 4902 ft 296 kts 78°
2026-05-06 17:08 43.38072 7.04492 4579 ft 294 kts 78°
2026-05-06 17:08 43.38490 7.07214 4272 ft 292 kts 78°
2026-05-06 17:09 43.38910 7.09935 3957 ft 291 kts 78°
2026-05-06 17:09 43.39326 7.12637 3643 ft 290 kts 78°
2026-05-06 17:09 43.39735 7.15330 3329 ft 288 kts 78°
2026-05-06 17:09 43.40142 7.18044 3008 ft 287 kts 78°
2026-05-06 17:10 43.40535 7.20713 2744 ft 284 kts 78°
2026-05-06 17:10 43.40922 7.23355 2517 ft 280 kts 78°
2026-05-06 17:10 43.41308 7.25947 2288 ft 277 kts 78°
2026-05-06 17:10 43.41880 7.28432 2051 ft 274 kts 64°
2026-05-06 17:11 43.42829 7.30694 1959 ft 272 kts 48°
2026-05-06 17:11 43.44216 7.32417 1999 ft 271 kts 39°
2026-05-06 17:11 43.45636 7.34066 1954 ft 253 kts 39°
2026-05-06 17:11 43.46893 7.35543 1927 ft 225 kts 39°
2026-05-06 17:12 43.48021 7.36879 1979 ft 209 kts 39°
2026-05-06 17:12 43.49154 7.38117 2064 ft 206 kts 28°
2026-05-06 17:12 43.50497 7.38666 1965 ft 203 kts
2026-05-06 17:12 43.51911 7.38967 1992 ft 208 kts
2026-05-06 17:13 43.53371 7.39054 1985 ft 212 kts 359°
2026-05-06 17:13 43.54839 7.39089 1976 ft 213 kts 359°
2026-05-06 17:13 43.56317 7.39131 1974 ft 212 kts 359°
2026-05-06 17:13 43.57801 7.39173 1976 ft 212 kts 359°
2026-05-06 17:14 43.59267 7.39214 1968 ft 203 kts 359°
2026-05-06 17:14 43.60561 7.39254 1961 ft 172 kts 359°
2026-05-06 17:14 43.61707 7.39287 1937 ft 161 kts 358°
2026-05-06 17:14 43.62819 7.39201 1950 ft 158 kts 344°
2026-05-06 17:15 43.63755 7.38511 1945 ft 152 kts 307°
2026-05-06 17:15 43.64313 7.37288 2008 ft 150 kts 297°
2026-05-06 17:15 43.64855 7.36028 1964 ft 151 kts 297°
2026-05-06 17:15 43.65393 7.34777 1971 ft 152 kts 298°
2026-05-06 17:16 43.65975 7.33560 1913 ft 154 kts 302°
2026-05-06 17:16 43.66589 7.32367 1688 ft 151 kts 301°
2026-05-06 17:16 43.67182 7.31195 1488 ft 149 kts 301°
2026-05-06 17:16 43.67777 7.30027 1284 ft 148 kts 301°
2026-05-06 17:17 43.68364 7.28870 1080 ft 147 kts 301°
2026-05-06 17:17 43.68761 7.27612 863 ft 141 kts 271°
2026-05-06 17:17 43.68671 7.26282 682 ft 138 kts 251°
2026-05-06 17:17 43.68230 7.25135 488 ft 135 kts 229°
2026-05-06 17:18 43.67567 7.24238 311 ft 134 kts 223°
2026-05-06 17:18 43.66914 7.23331 121 ft 132 kts 225°
2026-05-06 17:18 43.66280 7.22438 32 ft 130 kts 225°
2026-05-06 17:18 43.65764 7.21725 30 ft 81 kts 225°
2026-05-06 17:19 43.65479 7.21269 30 ft 37 kts 244°
2026-05-06 17:19 43.65400 7.20975 30 ft 26 kts 253°
2026-05-06 17:19 43.65373 7.20779 30 ft 15 kts 282°
2026-05-06 17:19 43.65452 7.20707 30 ft 14 kts 347°
2026-05-06 17:20 43.65547 7.20682 31 ft 14 kts 349°
2026-05-06 17:20 43.65648 7.20638 33 ft 18 kts 329°
2026-05-06 17:20 43.65747 7.20646 35 ft 16 kts 28°
2026-05-06 17:20 43.65841 7.20654 37 ft 12 kts 318°
2026-05-06 17:21 43.65862 7.20627 37 ft 0 kts 317°